Location: Ellerstadt
(49.4644°N, 8.2615°E)
Time: 06:11:13
(UTC+00:00)

SPOT 3 Rocket - Pass Details

Date: 20 June 2021
Orbit: 779 x 794 km, 98.7° (Epoch: 03 August)

Event Time Altitude Azimuth Distance (km) Brightness Sun altitude
Rises 21:09:16 0° 199° (SSW) 3,261 6.4 -10.8°
Reaches altitude 10° 21:11:58 10° 212° (SSW) 2,340 5.8 -11.0°
Maximum altitude 21:16:11 25° 267° (W) 1,545 5.4 -11.4°
Drops below altitude 10° 21:20:28 10° 322° (NW) 2,363 7.5 -11.7°
Sets 21:23:12 0° 336° (NNW) 3,300 8.9 -11.9°
